SCP
0 0 0 0 0 -0 0 0 0 0 0 0 0 0 0 -0 0 0 0 0 0 0 0 -0 -0 -0 0 0 0 0 0 0
0 0 0 0 0 -0 -0 0 0 0 0 0 0 0 -0 -0 -0 0 0 0 1 1 0 0 0 0 0 0 0 0 0 0
0 0 0 0 0 0 0 -0 0 0 0 0 0 0 0 -0 -0 0 0 0 1 1 1 0 0 0 0 0 -0 -0 -0 -0
0 0 0 0 0 0 0 0 -0 0 0 0 0 0 0 0 -0 0 0 0 1 1 1 1 0 0 0 0 0 -0 -0 -0
0 0 0 0 -0 0 -0 0 -0 0 0 0 0 0 0 0 -0 0 0 1 1 1 2 1 0 0 0 0 0 -0 -0 -0
0 0 0 0 0 0 0 0 0 -0 0 0 0 0 0 0 0 0 1 1 1 1 2 2 1 1 0 0 0 0 0 -0
0 0 0 0 0 0 0 0 0 0 0 0 0 0 0 0 0 -0 1 1 1 1 1 1 1 1 1 0 0 0 0 0
0 -0 0 -0 -0 -0 0 0 0 0 0 0 0 0 0 0 0 0 -0 1 0 0 1 1 1 1 1 1 1 0 0 0
0 -0 -0 -0 0 -0 0 0 0 0 0 0 0 0 0 0 0 0 0 -0 0 0 0 1 1 1 1 1 0 0 0 0
0 0 0 0 0 -0 0 0 0 0 0 0 0 0 0 0 0 0 0 0 0 0 0 0 1 1 1 0 0 0 0 0
0 0 0 0 0 0 0 0 0 0 0 0 0 0 0 0 0 0 0 0 2 1 0 1 2 2 1 0 0 0 0 0
0 0 0 0 0 0 0 0 0 0 0 0 0 0 0 0 0 0 0 0 0 1 1 1 2 2 1 2 0 0 0 0
0 0 0 0 0 0 0 0 0 0 0 0 0 0 0 0 0 0 0 0 1 2 2 2 3 3 3 1 2 1 1 0
0 0 0 0 0 0 0 0 0 0 0 0 0 0 0 0 0 0 0 0 0 2 2 2 2 3 3 2 1 1 1 1
0 0 0 0 0 0 0 0 0 0 0 0 0 0 0 0 0 0 0 0 0 0 3 3 2 1 2 1 3 1 1 1
0 0 0 0 0 0 0 0 0 0 0 0 0 0 0 0 0 0 0 0 0 1 4 4 5 6 8 4 2 1 1 0
0 0 0 0 0 0 0 0 0 0 0 0 0 0 0 0 0 0 0 0 0 0 0 4 8 6 1 9 1 2 3 2
0 0 0 0 0 0 0 0 0 0 0 0 0 0 0 0 0 0 0 0 0 1 1 0 0 0 1 2 3 1 0 1
0 0 0 0 0 0 0 0 0 0 0 0 0 0 0 0 0 0 0 0 0 0 0 0 0 0 0 0 0 0 0 1
0 0 0 0 0 0 0 0 0 0 0 0 0 0 0 0 0 0 0 0 0 0 0 0 0 0 0 0 0 0 0 0
Wind_Speed_500mb
4 7 10 9 20 16 34 51 44 13 16 17 23 31 14 18 10 2 11 11 36 53 60 60 61 59 52 46 41 39 37 35
2 15 21 18 19 15 17 47 42 15 9 34 25 19 20 14 0 10 16 16 38 54 60 61 58 55 52 46 40 38 36 33
7 15 22 17 23 29 9 40 30 53 16 26 33 25 28 18 17 18 24 25 32 54 61 61 60 58 53 48 41 36 34 31
7 16 24 20 25 34 20 65 38 28 39 31 28 29 24 22 9 14 28 36 29 55 63 64 59 56 54 50 44 40 34 32
16 23 32 32 46 18 52 48 29 24 11 17 21 18 21 32 17 7 21 48 33 54 66 67 63 57 55 50 46 41 38 34
21 24 32 43 48 22 42 34 54 36 4 2 22 6 20 22 25 11 10 46 36 48 63 67 66 60 55 51 47 41 37 35
22 29 33 55 21 34 43 31 36 54 29 27 16 4 10 12 34 29 19 45 36 34 54 62 63 60 58 53 49 45 40 37
19 31 27 41 36 37 23 42 41 34 47 30 40 4 17 8 26 15 19 29 38 31 33 57 63 60 58 58 53 48 44 40
36 55 56 36 42 53 22 16 36 49 42 42 44 3 21 20 9 11 16 1 39 32 26 49 67 59 54 55 54 52 48 44
53 67 58 27 50 32 39 21 35 47 38 33 33 16 8 29 28 5 11 13 31 30 23 30 57 53 30 38 51 52 51 48
59 59 55 54 28 27 52 48 28 35 36 36 39 37 9 23 34 12 15 10 31 29 24 29 36 34 35 32 31 41 51 50
44 32 23 13 26 44 61 56 48 27 40 46 50 43 43 24 35 32 25 23 24 31 32 37 41 30 22 34 33 20 33 38
23 26 18 29 26 35 48 49 58 52 40 42 57 58 55 40 39 47 36 39 27 30 24 31 42 49 48 24 32 40 34 22
14 19 41 28 39 39 57 43 57 56 61 63 46 72 63 45 38 51 45 52 46 38 32 16 7 48 55 52 40 46 44 38
31 31 31 23 44 43 62 47 38 46 59 69 63 59 53 49 41 46 39 54 56 60 51 49 32 8 18 65 54 52 49 52
17 11 19 21 26 20 26 24 38 39 30 18 13 48 47 38 45 53 43 53 58 58 56 58 61 56 32 20 52 65 61 62
18 20 19 25 21 16 17 22 21 32 39 42 46 41 45 47 49 46 49 58 62 59 54 54 59 55 59 43 33 30 27 34
18 22 25 24 24 18 16 11 20 31 51 62 51 67 51 54 54 57 60 53 48 41 51 56 56 60 61 66 66 29 26 26
19 30 25 16 25 26 16 28 45 58 65 76 69 56 64 67 71 67 62 57 52 47 40 47 61 65 59 55 63 72 57 48
24 14 8 11 24 30 17 30 37 57 65 73 85 77 59 79 73 60 45 34 29 33 42 37 31 50 66 69 74 74 88 64
Wind_Direction_500mb
153 192 225 257 275 316 324 325 336 352 16 92 117 71 82 55 317 321 224 195 181 164 160 159 158 157 157 157 156 151 147 144
148 265 263 250 283 299 303 312 329 345 41 75 102 91 87 51 124 271 222 192 186 170 165 164 165 164 163 164 163 161 157 154
284 265 277 273 234 269 252 289 307 333 47 91 84 86 72 42 47 275 222 200 187 177 170 169 171 171 170 170 170 169 167 164
269 281 282 280 220 173 281 273 295 314 38 87 71 62 68 13 343 296 229 204 186 184 175 175 177 180 178 176 178 176 177 176
252 258 277 277 288 226 198 238 287 301 322 113 67 70 50 40 4 323 224 185 180 189 180 180 180 186 186 185 186 187 184 185
255 262 269 273 277 232 186 206 237 275 296 155 113 68 22 44 52 24 230 180 179 190 190 186 185 186 193 193 193 198 195 194
249 259 267 274 282 260 207 209 225 253 250 277 268 137 29 306 28 46 171 191 186 193 199 196 192 189 193 198 201 203 207 206
247 262 269 277 288 298 190 209 215 222 245 255 261 258 139 263 26 31 85 195 191 192 200 209 203 198 198 201 205 208 211 215
260 262 270 287 302 304 312 224 182 202 224 240 261 230 181 206 344 347 54 329 226 202 212 212 212 206 208 209 211 212 215 216
249 260 271 278 295 304 305 304 206 222 202 220 247 250 195 193 226 178 349 69 192 207 186 193 211 212 220 232 227 224 222 221
250 256 258 270 280 289 286 292 307 182 199 226 245 251 247 230 215 206 180 57 190 183 171 162 183 209 218 233 244 245 234 231
302 303 302 313 307 296 278 280 286 259 220 212 235 248 260 232 217 223 182 201 159 177 178 180 187 186 199 225 234 240 236 238
298 294 285 299 293 270 270 271 280 278 263 243 232 242 247 239 238 236 219 207 218 206 186 200 199 215 215 206 211 232 239 240
279 283 270 234 252 254 260 253 261 270 272 271 260 229 225 230 220 227 226 216 218 229 210 183 157 222 220 221 197 200 212 220
268 240 240 215 238 243 239 243 256 253 251 246 259 216 218 223 212 216 236 226 231 237 228 226 220 186 273 235 223 220 216 218
258 294 334 318 308 218 204 252 268 271 278 247 202 199 204 217 232 240 235 223 221 217 210 226 238 234 209 272 241 250 243 232
310 326 335 304 295 295 266 239 270 288 292 288 244 229 207 218 237 233 224 208 210 212 206 211 219 221 226 202 257 237 216 233
310 315 299 296 295 288 275 242 275 277 282 274 267 245 217 210 214 218 219 217 211 206 199 204 209 213 219 220 216 257 247 235
267 271 272 293 290 293 276 277 280 277 263 260 258 250 219 209 214 209 207 207 215 222 217 214 214 212 212 212 218 216 241 236
294 331 281 3 301 289 289 295 291 277 276 253 245 247 222 206 198 194 190 192 203 216 224 233 235 222 224 227 220 224 237 253
Wind_Speed_850mb
4 7 10 9 20 16 34 51 44 13 16 17 23 31 14 18 10 2 11 11 36 53 60 60 61 59 52 46 41 39 37 35
2 15 21 18 19 15 17 47 42 15 9 34 25 19 20 14 0 10 16 16 38 54 60 61 58 55 52 46 40 38 36 33
7 15 22 17 23 29 9 40 30 53 16 26 33 25 28 18 17 18 24 25 32 54 61 61 60 58 53 48 41 36 34 31
7 16 24 20 25 34 20 65 38 28 39 31 28 29 24 22 9 14 28 36 29 55 63 64 59 56 54 50 44 40 34 32
16 23 32 32 46 18 52 48 29 24 11 17 21 18 21 32 17 7 21 48 33 54 66 67 63 57 55 50 46 41 38 34
21 24 32 43 48 22 42 34 54 36 4 2 22 6 20 22 25 11 10 46 36 48 63 67 66 60 55 51 47 41 37 35
22 29 33 55 21 34 43 31 36 54 29 27 16 4 10 12 34 29 19 45 36 34 54 62 63 60 58 53 49 45 40 37
19 31 27 41 36 37 23 42 41 34 47 30 40 4 17 8 26 15 19 29 38 31 33 57 63 60 58 58 53 48 44 40
36 55 56 36 42 53 22 16 36 49 42 42 44 3 21 20 9 11 16 1 39 32 26 49 67 59 54 55 54 52 48 44
53 67 58 27 50 32 39 21 35 47 38 33 33 16 8 29 28 5 11 13 31 30 23 30 57 53 30 38 51 52 51 48
59 59 55 54 28 27 52 48 28 35 36 36 39 37 9 23 34 12 15 10 31 29 24 29 36 34 35 32 31 41 51 50
44 32 23 13 26 44 61 56 48 27 40 46 50 43 43 24 35 32 25 23 24 31 32 37 41 30 22 34 33 20 33 38
23 26 18 29 26 35 48 49 58 52 40 42 57 58 55 40 39 47 36 39 27 30 24 31 42 49 48 24 32 40 34 22
14 19 41 28 39 39 57 43 57 56 61 63 46 72 63 45 38 51 45 52 46 38 32 16 7 48 55 52 40 46 44 38
31 31 31 23 44 43 62 47 38 46 59 69 63 59 53 49 41 46 39 54 56 60 51 49 32 8 18 65 54 52 49 52
17 11 19 21 26 20 26 24 38 39 30 18 13 48 47 38 45 53 43 53 58 58 56 58 61 56 32 20 52 65 61 62
18 20 19 25 21 16 17 22 21 32 39 42 46 41 45 47 49 46 49 58 62 59 54 54 59 55 59 43 33 30 27 34
18 22 25 24 24 18 16 11 20 31 51 62 51 67 51 54 54 57 60 53 48 41 51 56 56 60 61 66 66 29 26 26
19 30 25 16 25 26 16 28 45 58 65 76 69 56 64 67 71 67 62 57 52 47 40 47 61 65 59 55 63 72 57 48
24 14 8 11 24 30 17 30 37 57 65 73 85 77 59 79 73 60 45 34 29 33 42 37 31 50 66 69 74 74 88 64
Wind_Direction_850mb
153 192 225 257 275 316 324 325 336 352 16 92 117 71 82 55 317 321 224 195 181 164 160 159 158 157 157 157 156 151 147 144
148 265 263 250 283 299 303 312 329 345 41 75 102 91 87 51 124 271 222 192 186 170 165 164 165 164 163 164 163 161 157 154
284 265 277 273 234 269 252 289 307 333 47 91 84 86 72 42 47 275 222 200 187 177 170 169 171 171 170 170 170 169 167 164
269 281 282 280 220 173 281 273 295 314 38 87 71 62 68 13 343 296 229 204 186 184 175 175 177 180 178 176 178 176 177 176
252 258 277 277 288 226 198 238 287 301 322 113 67 70 50 40 4 323 224 185 180 189 180 180 180 186 186 185 186 187 184 185
255 262 269 273 277 232 186 206 237 275 296 155 113 68 22 44 52 24 230 180 179 190 190 186 185 186 193 193 193 198 195 194
249 259 267 274 282 260 207 209 225 253 250 277 268 137 29 306 28 46 171 191 186 193 199 196 192 189 193 198 201 203 207 206
247 262 269 277 288 298 190 209 215 222 245 255 261 258 139 263 26 31 85 195 191 192 200 209 203 198 198 201 205 208 211 215
260 262 270 287 302 304 312 224 182 202 224 240 261 230 181 206 344 347 54 329 226 202 212 212 212 206 208 209 211 212 215 216
249 260 271 278 295 304 305 304 206 222 202 220 247 250 195 193 226 178 349 69 192 207 186 193 211 212 220 232 227 224 222 221
250 256 258 270 280 289 286 292 307 182 199 226 245 251 247 230 215 206 180 57 190 183 171 162 183 209 218 233 244 245 234 231
302 303 302 313 307 296 278 280 286 259 220 212 235 248 260 232 217 223 182 201 159 177 178 180 187 186 199 225 234 240 236 238
298 294 285 299 293 270 270 271 280 278 263 243 232 242 247 239 238 236 219 207 218 206 186 200 199 215 215 206 211 232 239 240
279 283 270 234 252 254 260 253 261 270 272 271 260 229 225 230 220 227 226 216 218 229 210 183 157 222 220 221 197 200 212 220
268 240 240 215 238 243 239 243 256 253 251 246 259 216 218 223 212 216 236 226 231 237 228 226 220 186 273 235 223 220 216 218
258 294 334 318 308 218 204 252 268 271 278 247 202 199 204 217 232 240 235 223 221 217 210 226 238 234 209 272 241 250 243 232
310 326 335 304 295 295 266 239 270 288 292 288 244 229 207 218 237 233 224 208 210 212 206 211 219 221 226 202 257 237 216 233
310 315 299 296 295 288 275 242 275 277 282 274 267 245 217 210 214 218 219 217 211 206 199 204 209 213 219 220 216 257 247 235
267 271 272 293 290 293 276 277 280 277 263 260 258 250 219 209 214 209 207 207 215 222 217 214 214 212 212 212 218 216 241 236
294 331 281 3 301 289 289 295 291 277 276 253 245 247 222 206 198 194 190 192 203 216 224 233 235 222 224 227 220 224 237 253